Weather History for Algona, IA

Change the Weather History Date:

Sunday, January 27, 2013

  Actual Average Record
Temperature  
Mean Temperature 30 °F -  
Max Temperature 32 °F 24 °F 55 °F (2002)
Min Temperature 28 °F 10 °F -13 °F (1997)
Degree Days  
Heating Degree Days 35    
Moisture  
Dew Point 27 °F    
Average Humidity 87    
Maximum Humidity 100    
Minimum Humidity 55    
Precipitation  
Precipitation 0.15 in - - ()
Sea Level Pressure  
Sea Level Pressure 29.86 in    
Wind  
Wind Speed 14 mph (SSE)    
Max Wind Speed 21 mph    
Max Gust Speed 26 mph    
Visibility 4 miles    
Events Fog , Rain    
Averages and records for this station are not official NWS values.
T = Trace of Precipitation, MM = Missing Value Source: NWS Daily Summary

Daily Weather History Graph

Daily Weather History Graph

Search for Another Location

Airport:

Trip Planner

Search our weather history database for the weather conditions in past years. The results will help you decide how hot, cold, wet, or windy it might be!

Date:

Astronomy

Jan. 27, 2013 Rise Set
Actual Time 7:37 AM CST 5:23 PM CST
Civil Twilight 7:06 AM CST 5:53 PM CST
Nautical Twilight 6:32 AM CST 6:28 PM CST
Astronomical Twilight 5:58 AM CST 7:01 PM CST
Moon 6:21 PM CST (1/27) 7:28 AM CST (1/27)
Length of Visible Light 10h 47m
Length of Day
9h 46m
Full, 100% of the Moon is Illuminated
Jan 27
Full
Feb 3
Last Quarter
Feb 10
New
Feb 17
First Quarter
Feb 25
Full

Hourly Weather History & Observations

Time (CST) Temp. Windchill Dew Point Humidity Pressure Visibility Wind Dir Wind Speed Gust Speed Precip Events Conditions
12:15 AM 28.4 °F 15.8 °F 14.0 °F 55% 30.05 in 10.0 mi SSE 18.4 mph 25.3 mph N/A   Clear
12:35 AM 28.4 °F 16.2 °F 14.0 °F 55% 30.05 in 10.0 mi SSE 17.3 mph 24.2 mph N/A   Clear
12:55 AM 28.4 °F 16.2 °F 14.0 °F 55% 30.04 in 10.0 mi SSE 17.3 mph 23.0 mph N/A   Clear
1:15 AM 28.4 °F 17.0 °F 14.0 °F 55% 30.04 in 10.0 mi SSE 15.0 mph 25.3 mph N/A   Mostly Cloudy
1:35 AM 28.4 °F 16.6 °F 14.0 °F 55% 30.04 in 10.0 mi SSE 16.1 mph - N/A   Overcast
1:55 AM 28.4 °F 17.0 °F 14.0 °F 55% 30.04 in 10.0 mi SSE 15.0 mph 23.0 mph N/A   Overcast
2:15 AM 28.4 °F 17.5 °F 15.8 °F 59% 30.03 in 10.0 mi SE 13.8 mph - N/A   Overcast
2:35 AM 28.4 °F 17.0 °F 15.8 °F 59% 30.03 in 10.0 mi SSE 15.0 mph 21.9 mph N/A   Overcast
2:55 AM 28.4 °F 19.1 °F 15.8 °F 59% 30.02 in 10.0 mi SE 10.4 mph 16.1 mph N/A   Mostly Cloudy
3:15 AM 28.4 °F 18.0 °F 15.8 °F 59% 30.01 in 10.0 mi SE 12.7 mph 20.7 mph N/A   Mostly Cloudy
3:35 AM 28.4 °F 17.0 °F 15.8 °F 59% 30.00 in 10.0 mi SE 15.0 mph - N/A   Mostly Cloudy
3:55 AM 28.4 °F 17.0 °F 15.8 °F 59% 29.99 in 10.0 mi SE 15.0 mph - N/A   Scattered Clouds
4:15 AM 30.2 °F 20.8 °F 15.8 °F 55% 29.99 in 10.0 mi SE 11.5 mph 19.6 mph N/A   Mostly Cloudy
4:35 AM 30.2 °F 20.8 °F 15.8 °F 55% 29.98 in 10.0 mi SSE 11.5 mph - N/A   Overcast
4:55 AM 30.2 °F 21.3 °F 15.8 °F 55% 29.98 in 10.0 mi SE 10.4 mph 17.3 mph N/A   Overcast
5:15 AM 30.2 °F 21.3 °F 17.6 °F 60% 29.97 in 10.0 mi SSE 10.4 mph - N/A   Overcast
5:35 AM 32.0 °F 21.6 °F 17.6 °F 55% 29.98 in 10.0 mi SSE 15.0 mph - N/A   Overcast
5:55 AM 32.0 °F 21.6 °F 17.6 °F 55% 29.97 in 10.0 mi SSE 15.0 mph 21.9 mph N/A   Overcast
6:15 AM 32.0 °F 21.6 °F 17.6 °F 55% 29.96 in 10.0 mi SSE 15.0 mph - N/A   Overcast
6:35 AM 32.0 °F 21.2 °F 19.4 °F 60% 29.95 in 10.0 mi SSE 16.1 mph 21.9 mph N/A   Overcast
6:55 AM 32.0 °F 20.1 °F 23.0 °F 69% 29.95 in 5.0 mi SSE 19.6 mph - N/A Rain Light Rain
7:15 AM 30.2 °F 18.5 °F 26.6 °F 86% 29.94 in 7.0 mi SSE 17.3 mph 23.0 mph N/A Rain Light Freezing Rain
7:35 AM 32.0 °F 20.5 °F 28.4 °F 87% 29.92 in 6.0 mi SE 18.4 mph 24.2 mph N/A Rain Light Rain
7:55 AM 32.0 °F 20.8 °F 28.4 °F 87% 29.92 in 5.0 mi SSE 17.3 mph 24.2 mph 0.02 in Rain Light Rain
8:15 AM 32.0 °F 20.5 °F 30.2 °F 93% 29.92 in 3.0 mi SSE 18.4 mph 24.2 mph N/A Rain Light Rain
8:35 AM 32.0 °F 21.6 °F 30.2 °F 93% 29.91 in 3.0 mi SSE 15.0 mph 23.0 mph N/A   Overcast
8:55 AM 32.0 °F 21.2 °F 32.0 °F 100% 29.90 in 2.0 mi SSE 16.1 mph - 0.03 in   Overcast
9:15 AM 32.0 °F 20.8 °F 32.0 °F 100% 29.90 in 3.0 mi SE 17.3 mph 23.0 mph N/A Rain Light Rain
9:35 AM 32.0 °F 20.1 °F 32.0 °F 100% 29.90 in 1.5 mi SSE 19.6 mph 26.5 mph N/A Rain Light Rain
9:55 AM 32.0 °F 20.1 °F 32.0 °F 100% 29.89 in 1.2 mi SSE 19.6 mph 25.3 mph 0.04 in   Light Drizzle
10:15 AM 32.0 °F 21.2 °F 32.0 °F 100% 29.88 in 1.8 mi SE 16.1 mph 25.3 mph N/A   Overcast
10:35 AM 32.0 °F 19.8 °F 32.0 °F 100% 29.88 in 4.0 mi SSE 20.7 mph - N/A   Light Drizzle
10:55 AM 32.0 °F 20.5 °F 32.0 °F 100% 29.88 in 5.0 mi SSE 18.4 mph - 0.05 in Rain Light Rain
11:15 AM 32.0 °F 21.2 °F 32.0 °F 100% 29.88 in 4.0 mi SSE 16.1 mph 24.2 mph N/A   Overcast
11:35 AM 32.0 °F 21.6 °F 32.0 °F 100% 29.87 in 3.0 mi SSE 15.0 mph 21.9 mph N/A Rain Light Rain
11:55 AM 32.0 °F 22.1 °F 32.0 °F 100% 29.86 in 3.0 mi SSE 13.8 mph 20.7 mph N/A   Overcast
12:15 PM 32.0 °F 21.6 °F 32.0 °F 100% 29.84 in 3.0 mi SSE 15.0 mph 25.3 mph N/A Rain Light Rain
12:35 PM 32.0 °F 22.5 °F 32.0 °F 100% 29.83 in 1.2 mi SSE 12.7 mph 19.6 mph N/A Rain Light Rain
12:55 PM 32.0 °F 22.1 °F 32.0 °F 100% 29.82 in 0.8 mi SSE 13.8 mph 20.7 mph N/A   Light Drizzle
1:15 PM 32.0 °F 22.5 °F 32.0 °F 100% 29.81 in 0.8 mi SSE 12.7 mph - N/A   Light Drizzle
1:35 PM 32.0 °F 23.0 °F 32.0 °F 100% 29.80 in - SSE 11.5 mph 18.4 mph N/A   Light Drizzle
1:55 PM 32.0 °F 21.6 °F 32.0 °F 100% 29.79 in 1.0 mi SSE 15.0 mph - 0.01 in   Overcast
2:15 PM 32.0 °F 22.5 °F 32.0 °F 100% 29.77 in 1.2 mi SE 12.7 mph - N/A   Overcast
2:35 PM 32.0 °F 22.5 °F 32.0 °F 100% 29.77 in 2.0 mi SE 12.7 mph 19.6 mph N/A   Overcast
2:55 PM 32.0 °F 23.6 °F 32.0 °F 100% 29.77 in 4.0 mi SSE 10.4 mph 18.4 mph N/A   Overcast
3:15 PM 32.0 °F 23.0 °F 32.0 °F 100% 29.77 in 3.0 mi SE 11.5 mph - N/A   Overcast
3:35 PM 32.0 °F 23.0 °F 32.0 °F 100% 29.77 in 1.2 mi SSE 11.5 mph 20.7 mph N/A   Overcast
3:55 PM 32.0 °F 23.6 °F 32.0 °F 100% 29.76 in 1.0 mi SSE 10.4 mph 18.4 mph N/A   Overcast
4:15 PM 32.0 °F 24.2 °F 32.0 °F 100% 29.76 in 1.2 mi SE 9.2 mph 15.0 mph N/A   Overcast
4:35 PM 32.0 °F 24.2 °F 32.0 °F 100% 29.75 in 1.2 mi SE 9.2 mph 15.0 mph N/A   Overcast
4:55 PM 32.0 °F 23.0 °F 32.0 °F 100% 29.76 in 1.2 mi SSE 11.5 mph - N/A   Overcast
5:15 PM 32.0 °F 23.0 °F 32.0 °F 100% 29.75 in 1.2 mi SSE 11.5 mph - N/A   Overcast
5:35 PM 32.0 °F 24.2 °F 32.0 °F 100% 29.75 in 1.5 mi SE 9.2 mph 15.0 mph N/A   Overcast
5:55 PM 32.0 °F 23.6 °F 32.0 °F 100% 29.74 in 2.0 mi SE 10.4 mph - N/A   Overcast
6:15 PM 32.0 °F 24.2 °F 32.0 °F 100% 29.74 in 2.0 mi SE 9.2 mph - N/A   Overcast
6:35 PM 32.0 °F 24.2 °F 32.0 °F 100% 29.75 in 3.0 mi SE 9.2 mph - N/A   Overcast
6:55 PM 32.0 °F 24.2 °F 32.0 °F 100% 29.76 in 4.0 mi SE 9.2 mph - N/A   Overcast
7:15 PM 32.0 °F 24.8 °F 32.0 °F 100% 29.76 in 3.0 mi SSE 8.1 mph - N/A   Overcast
7:35 PM 32.0 °F 27.5 °F 32.0 °F 100% 29.76 in 2.0 mi SE 4.6 mph - N/A   Overcast
7:55 PM 32.0 °F 26.4 °F 32.0 °F 100% 29.76 in 1.5 mi SE 5.8 mph - N/A   Overcast
8:15 PM 32.0 °F 27.5 °F 32.0 °F 100% 29.76 in 1.5 mi SSE 4.6 mph - N/A   Overcast
8:35 PM 32.0 °F 27.5 °F 32.0 °F 100% 29.76 in 1.5 mi SSE 4.6 mph - N/A   Overcast
8:55 PM 32.0 °F 27.5 °F 32.0 °F 100% 29.76 in 1.5 mi SSE 4.6 mph - N/A   Overcast
9:15 PM 32.0 °F - 32.0 °F 100% 29.75 in 1.8 mi Calm Calm - N/A   Overcast
9:35 PM 32.0 °F - 32.0 °F 100% 29.75 in 2.0 mi Calm Calm - N/A   Overcast
9:55 PM 32.0 °F - 32.0 °F 100% 29.76 in 1.8 mi Calm Calm - N/A   Overcast
10:15 PM 32.0 °F - 32.0 °F 100% 29.76 in 1.0 mi Calm Calm - N/A   Overcast
10:35 PM 32.0 °F - 32.0 °F 100% 29.76 in 0.5 mi Calm Calm - N/A   Overcast
10:55 PM 32.0 °F - 32.0 °F 100% 29.77 in 0.2 mi Calm Calm - N/A Fog Fog
11:15 PM 32.0 °F - 32.0 °F 100% 29.77 in 0.2 mi Calm Calm - N/A Fog Fog
11:35 PM 32.0 °F - 32.0 °F 100% 29.76 in 0.2 mi Calm Calm - N/A Fog Fog
11:55 PM 32.0 °F - 32.0 °F 100% 29.76 in 0.2 mi Calm Calm - N/A Fog Fog